Starlink 31227

decayed
NORAD ID: 59026 Int'l Des: 2024-038 Owner: SPXS Country: US Constellation: starlink
LEOCIRCULAR
Gruppe

Über Starlink 31227

Beschreibung wird geladen...

Höhenverlauf

Altitude vs Time

uPlot chart will show altitude changes over time

Zweizeiliger Elementsatz

1 59026U 24038D 26027.95949804 .09956635 89240-5 41612-2 0 9991
2 59026 42.9914 245.1809 0005787 256.8032 103.2209 16.22052838108659
Epoch: 27. Jan. 2026 • Age: 859 hours

Aktueller Status

Position data unavailable
Startdatum 25. Feb. 2024
Alter 2 years
Verglühungsdatum 28. Jan. 2026
Typ internet

Technische Details

Klassifizierung Payload
Masse 730.00 kg
Trockenmasse 700.00 kg
Gesamtmasse 730.00 kg
Länge 0.30 m
Durchmesser 4.10 m
Spannweite 29.00 m
Form Box + pan
Hersteller SPXS
Bus-Typ Starlink V2M
Phasenstatus Unknown Transfer Status
Besitzer/Staat SPXS/US

Große Konstellationen

Loading constellations...